Terminal Aerodrome Forecast
Issued by NWS La Crosse, WI

Home | Current Version | Previous Version | Text Only | Print | Product List | Glossary On
Versions: 1 2 3 4 5 6 7 8 9 10 11 12 13 14 15 16 17 18 19 20 21 22 23 24 25 26 27 28 29 30 31 32 33 34 35 36 37 38 39
000
FTUS43 KARX 231720
TAFLSE
TAF
KLSE 231720Z 2318/2418 18008KT P6SM FEW040
     FM240000 16006KT P6SM BKN200
     FM241000 16006KT P6SM VCSH BKN100
     FM241500 17009KT P6SM BKN080=

USA.gov is the U.S. government's official web portal to all federal, state and local government web resources and services.